STARLINK-30276 (57652 NORAD) Tracking and Keplerian Element Data

This shows tracking and keplerian element data for the satellite.

Feedback or suggestion? Click here.




ElementValue
Catalog57652
NameSTARLINK-30276
Epoch Orbit2385
Epoch Day13.17649539
Epoch Year2024
RAAN47.9932
Inclination43.0031
Eccentricity0.0001024
Argument of Perigee269.7629
Mean Anonmoly90.3096
Mean Motion15.02544176
Decay Rate0.00017056
L11 57652U 23122W 24013.17649539 .00017056 00000+0 12743-2 0 9996
L22 57652 43.0031 47.9932 0001024 269.7629 90.3096 15.02544176 23850



Live tracking and technical data element details for STARLINK-30276 (NORAD 57652). STARLINK-30276 can be tracked NOW for your location showing map with azimuth and elevation plus other details from your city location.







IsCatalogInMostPopularTable: catalog: 57652, numindb: 39
Update: records affected: 1



GetName: 57652 STARLINK-30276

Hit Count: updated at: Thu, 29 Feb 2024 11:42:04 GMT